DW5367 Weather Reports


time (UTC)temp
C
wind
direction
speed
KPH
gust
KPH
rain 1hr
cm
rain 24hr
cm
rain mn
cm
humidity
%
barometer
mb
20260510020005 14 360 0.0 0.0 0.00 0.03 0.03 70 1008.8
20260510014502 14 360 0.0 0.0 0.00 0.03 0.03 70 1008.6
20260510013006 15 360 0.0 0.0 0.00 0.03 0.03 69 1008.4
20260510011501 15 360 0.0 0.0 0.00 0.03 0.03 67 1008.3
20260510010104 16 360 0.0 0.0 0.00 0.03 0.03 64 1008.0
20260510004600 16 360 0.0 3.2 0.00 0.03 0.03 63 1007.8
20260510003102 16 360 0.0 0.0 0.00 0.03 0.03 62 1007.4
20260510001559 17 360 0.0 1.6 0.00 0.03 0.03 61 1007.3
20260510000058 17 238 0.0 3.2 0.00 0.03 0.03 60 1007.3
20260509234558 17 233 1.6 8.0 0.00 0.03 0.03 58 1007.2
20260509233058 17 288 3.2 11.3 0.00 0.03 0.03 57 1007.3
20260509231603 18 229 3.2 11.3 0.00 0.03 0.03 57 1007.2
20260509230059 18 211 1.6 12.9 0.00 0.03 0.03 55 1006.9
20260509224559 18 213 0.0 6.4 0.00 0.03 0.03 54 1007.2
20260509223054 19 244 3.2 9.7 0.00 0.03 0.03 53 1007.2
20260509221553 18 217 1.6 8.0 0.00 0.03 0.03 57 1007.1
20260509220055 18 223 1.6 6.4 0.00 0.03 0.03 57 1007.2
20260509214558 18 241 1.6 9.7 0.00 0.03 0.03 56 1007.2
20260509213115 18 246 1.6 6.4 0.00 0.03 0.03 56 1007.0
20260509213002 18 252 0.0 6.4 0.00 0.03 0.03 58 1007.0
20260509211553 18 216 1.6 9.7 0.00 0.03 0.03 54 1006.9
20260509204549 19 207 3.2 12.9 0.00 0.03 0.03 52 1006.7
20260509203048 18 205 1.6 11.3 0.00 0.03 0.03 53 1006.7
20260509201546 19 194 0.0 12.9 0.00 0.03 0.03 55 1006.5
20260509200045 20 211 3.2 14.5 0.00 0.03 0.03 49 1006.6
20260509194541 20 256 3.2 12.9 0.00 0.03 0.03 49 1006.9
20260509193042 20 196 1.6 16.1 0.00 0.03 0.03 54 1007.0
20260509191540 19 208 3.2 9.7 0.00 0.03 0.03 54 1007.2
20260509190033 18 171 3.2 12.9 0.00 0.03 0.03 56 1007.4
20260509184538 18 218 4.8 14.5 0.00 0.03 0.03 56 1007.4
20260509183030 18 360 4.8 16.1 0.00 0.03 0.03 58 1007.5
20260509181523 17 360 4.8 14.5 0.00 0.03 0.03 61 1007.6
20260509180020 16 360 3.2 12.9 0.00 0.03 0.03 65 1007.9
20260509174518 16 360 0.0 9.7 0.00 0.03 0.03 66 1008.0
20260509173019 16 360 1.6 9.7 0.00 0.03 0.03 63 1008.5
20260509171515 16 360 1.6 6.4 0.00 0.03 0.03 61 1008.6
20260509170015 16 360 1.6 9.7 0.00 0.03 0.03 62 1008.7
20260509164516 16 360 3.2 9.7 0.00 0.03 0.03 63 1008.6
20260509163016 16 360 4.8 12.9 0.00 0.03 0.03 63 1008.5
20260509161512 16 360 3.2 6.4 0.00 0.03 0.03 63 1008.5
20260509160012 15 360 1.6 12.9 0.00 0.03 0.03 63 1008.5
20260509154509 15 360 1.6 6.4 0.00 0.03 0.03 62 1008.5
20260509153007 15 360 1.6 9.7 0.00 0.03 0.03 63 1008.4
20260509151504 15 360 1.6 12.9 0.00 0.03 0.03 67 1008.3
20260509150100 15 360 3.2 9.7 0.00 0.03 0.03 66 1008.5
20260509144600 14 360 1.6 12.9 0.00 0.03 0.03 70 1008.4
20260509143055 13 360 3.2 9.7 0.00 0.03 0.03 72 1008.5
20260509141549 13 360 3.2 9.7 0.00 0.03 0.03 74 1009.0
20260509140051 13 360 3.2 6.4 0.00 0.03 0.03 75 1009.3
20260509134543 13 360 3.2 9.7 0.00 0.03 0.03 75 1009.8
20260509133039 12 360 3.2 12.9 0.00 0.03 0.03 74 1009.9
20260509131540 12 360 1.6 9.7 0.03 0.03 0.03 75 1009.7
20260509130037 12 360 1.6 9.7 0.03 0.03 0.03 74 1009.6
20260509124636 12 360 0.0 6.4 0.03 0.03 0.03 75 1009.6
20260509123034 12 360 1.6 16.1 0.03 0.03 0.03 74 1009.8
20260509121532 12 360 0.0 8.0 0.00 0.00 0.00 74 1009.8
20260509120037 12 360 1.6 6.4 0.00 0.00 0.00 73 1009.7
20260509114526 12 360 0.0 6.4 0.00 0.00 0.00 73 1009.8
20260509113022 12 360 3.2 14.5 0.00 0.00 0.00 70 1009.8
20260509111520 11 360 1.6 9.7 0.00 0.00 0.00 69 1009.8
20260509110018 11 360 0.0 8.0 0.00 0.00 0.00 69 1009.8
20260509104517 11 360 1.6 6.4 0.00 0.00 0.00 68 1009.9
20260509103015 11 360 0.0 6.4 0.00 0.00 0.00 68 1010.0
20260509101515 11 360 1.6 6.4 0.00 0.00 0.00 67 1010.0
20260509100014 11 360 0.0 3.2 0.00 0.00 0.00 67 1010.1
20260509094513 11 360 1.6 8.0 0.00 0.00 0.00 66 1010.0
20260509093013 11 360 1.6 8.0 0.00 0.00 0.00 65 1010.1
20260509091512 12 360 1.6 9.7 0.00 0.00 0.00 64 1010.2
20260509090010 12 360 0.0 4.8 0.00 0.00 0.00 63 1009.9
20260509084510 11 360 1.6 4.8 0.00 0.00 0.00 62 1010.2
20260509083007 11 360 0.0 6.4 0.00 0.00 0.00 59 1010.3
20260509081506 11 360 1.6 8.0 0.00 0.00 0.00 59 1010.4
20260509080003 11 360 1.6 8.0 0.00 0.00 0.00 56 1010.6
20260509074502 11 360 3.2 8.0 0.00 0.00 0.00 56 1010.7
20260509073138 12 360 1.6 12.9 0.00 0.00 0.00 55 1011.0
20260509071558 12 360 1.6 8.0 0.00 0.00 0.00 54 1011.0
20260509070100 12 360 3.2 12.9 0.00 0.00 0.00 53 1011.1
20260509064554 12 360 0.0 9.7 0.00 0.00 0.00 54 1011.1
20260509063052 12 360 1.6 9.7 0.00 0.00 0.00 54 1011.2
20260509061557 12 360 1.6 9.7 0.00 0.00 0.00 54 1011.3
20260509060100 12 360 3.2 9.7 0.00 0.00 0.00 54 1011.6
20260509054607 12 360 1.6 8.0 0.00 0.00 0.00 55 1011.7
20260509053051 12 360 1.6 12.9 0.00 0.00 0.00 54 1011.8
20260509051547 12 360 1.6 6.4 0.00 0.00 0.00 54 1011.8
20260509050048 12 360 1.6 14.5 0.00 0.00 0.00 54 1011.8
20260509044545 12 360 1.6 4.8 0.00 0.00 0.00 55 1011.7
20260509043047 11 360 1.6 6.4 0.00 0.00 0.00 56 1011.6
20260509041542 12 360 1.6 8.0 0.00 0.00 0.00 55 1011.4
20260509040055 12 360 0.0 4.8 0.00 0.00 0.00 57 1011.5
20260509034547 12 360 3.2 12.9 0.00 0.00 0.00 57 1011.7
20260509033038 12 360 1.6 12.9 0.00 0.00 0.00 58 1011.7
20260509031537 12 360 1.6 3.2 0.00 0.00 0.00 57 1011.8
20260509030037 12 360 0.0 4.8 0.00 0.00 0.00 58 1011.9
20260509024536 12 360 1.6 6.4 0.00 0.00 0.00 57 1011.9
20260509023035 12 360 0.0 3.2 0.00 0.00 0.00 57 1012.1
20260509021538 12 360 0.0 4.8 0.00 0.00 0.00 57 1011.9